Weather in Odinok

Russia / Oryol Oblast     53°03′32″N   36°53′19″E
temp.,
°C
wind,
m/s
gust,
m/s
humid.,
%
clouds,
%
prec.,
mm/h
press.,
hPa
HPBL,
m
25 june, sat
sat2500:00+14nne348733 0.0 101565
03:00+13ne349098 0.0 101656
06:00+14ne37865 0.0 1016156
09:00+20ene46695 0.0 1017453
12:00+22ne5660100 0.0 10181203
15:00+24ene465810 0.0 10171715
18:00+23ne46695 0.1 1018790
21:00+18ne33860 0.1 101934
26 june, sun
sun2600:00+16ne33880 0.0 102029
03:00+16nne33882 0.0 102039
06:00+17ne36855 0.0 1021123
09:00+23ene45674 0.0 1022453
12:00+26ne46555 0.0 10221616
15:00+26ene455698 0.0 10212311
18:00+22ne237571 0.0 102262
21:00+20nne11760 0.0 102211
27 june, mon
mon2700:00+18nw11830 0.0 102311
03:00+17nnw22884 0.0 102217
06:00+19nnw22851 0.0 102363
09:00+24nw33715 0.0 1023398
12:00+27nnw34635 0.0 1022998
15:00+28n445713 0.0 10211743
18:00+27nnw35675 0.1 1020655
21:00+22nw22804 0.6 102015
28 june, tue
tue2800:00+20nw33885 0.1 102032
03:00+18n35892 0.1 101971
06:00+19nne35860 0.0 1020103
09:00+24ne45670 0.0 1020505
12:00+25ne56643 0.0 10201096
15:00+25ne676582 0.3 10201433
18:00+22ne667047 0.0 1021939
21:00+16ne34785 0.0 102249
29 june, wed
wed2900:00+14ne377751 0.0 1023107
03:00+12ne337515 0.0 102450
06:00+13ene368474 0.0 1024175
09:00+17ene45630 0.0 1024650
12:00+19ene55520 0.0 10241539
15:00+20ene55480 0.0 10241736
18:00+19ne34590 0.0 10241736
21:00+14ne33750 0.0 102442